"read_dt","SO2 (ppb)","flags","PMT voltage (V)","lamp voltage (V)","lamp intensity (Hz)","internal temp (C)","react chamber temp (C)","sample flow (l/min)","pres (mmHg)","SO2 bkg (ppb)","SO2 coefficient"
2017-05-04 00:00:00,1711E-3,5C000400,-0724,0838,12036,030.9,045.5,0.215,763.1,01.16,0.508
2017-05-04 00:01:00,1656E-3,5C000400,-0724,0837,11991,031.0,045.5,0.215,763.1,01.16,0.508
2017-05-04 00:02:00,1601E-3,5C000400,-0724,0838,12259,031.0,045.5,0.215,763.2,01.16,0.508
2017-05-04 00:03:00,1775E-3,5C000400,-0724,0836,12014,031.0,045.5,0.215,763.2,01.16,0.508
2017-05-04 00:04:00,1715E-3,5C000400,-0724,0837,12180,031.0,045.6,0.215,763.2,01.16,0.508
2017-05-04 00:05:00,1722E-3,5C000400,-0724,0837,12165,031.0,045.5,0.215,763.2,01.16,0.508
2017-05-04 00:06:00,1857E-3,5C000400,-0724,0838,12255,030.9,045.5,0.215,763.2,01.16,0.508
2017-05-04 00:07:00,1666E-3,5C000400,-0724,0838,10954,031.0,045.5,0.215,763.2,01.16,0.508
2017-05-04 00:08:00,1610E-3,5C000400,-0724,0840,12216,031.0,045.5,0.215,763.2,01.16,0.508
2017-05-04 00:09:00,1691E-3,5C000400,-0724,0836,12015,031.0,045.5,0.215,763.2,01.16,0.508
2017-05-04 00:10:00,1740E-3,5C000400,-0724,0836,11009,031.0,045.6,0.215,763.2,01.16,0.508
2017-05-04 00:11:00,1678E-3,5C000400,-0724,0837,12107,031.0,045.5,0.215,763.1,01.16,0.508
2017-05-04 00:12:00,1816E-3,5C000400,-0724,0838,12080,031.0,045.5,0.215,763.1,01.16,0.508
2017-05-04 00:13:00,1697E-3,5C000400,-0724,0837,12083,031.0,045.5,0.215,763.1,01.16,0.508
2017-05-04 00:14:00,1746E-3,5C000400,-0724,0836,12218,031.0,045.5,0.215,763.2,01.16,0.508
2017-05-04 00:15:00,1595E-3,5C000400,-0724,0838,12189,031.0,045.5,0.215,763.2,01.16,0.508
2017-05-04 00:16:00,1615E-3,5C000400,-0724,0837,12062,031.0,045.5,0.215,763.2,01.16,0.508
2017-05-04 00:17:00,1656E-3,5C000400,-0724,0836,11965,030.9,045.5,0.215,763.2,01.16,0.508
2017-05-04 00:18:00,1615E-3,5C000400,-0724,0835,12137,030.9,045.5,0.215,763.2,01.16,0.508
2017-05-04 00:19:00,1685E-3,5C000400,-0724,0836,12027,030.8,045.5,0.215,763.2,01.16,0.508
2017-05-04 00:20:00,1714E-3,5C000400,-0724,0836,12137,030.7,045.5,0.215,763.2,01.16,0.508
2017-05-04 00:21:00,1756E-3,5C000400,-0724,0836,12175,030.5,045.5,0.215,763.3,01.16,0.508
2017-05-04 00:22:00,1803E-3,5C000400,-0724,0836,12104,030.3,045.5,0.215,763.3,01.16,0.508
2017-05-04 00:23:00,1888E-3,5C000400,-0724,0836,12055,030.1,045.5,0.215,763.3,01.16,0.508
2017-05-04 00:24:00,1729E-3,5C000400,-0724,0835,12213,030.0,045.5,0.215,763.3,01.16,0.508
2017-05-04 00:25:00,1767E-3,5C000400,-0724,0836,12049,029.8,045.5,0.216,763.3,01.16,0.508
2017-05-04 00:26:00,1691E-3,5C000400,-0724,0835,12207,029.7,045.5,0.216,763.3,01.16,0.508
2017-05-04 00:27:00,1650E-3,5C000400,-0724,0836,12131,029.6,045.5,0.216,763.2,01.16,0.508
2017-05-04 00:28:00,1657E-3,5C000400,-0724,0835,12147,029.6,045.5,0.216,763.2,01.16,0.508
2017-05-04 00:29:00,1853E-3,5C000400,-0724,0835,12183,029.6,045.5,0.217,763.2,01.16,0.508
2017-05-04 00:30:00,1791E-3,5C000400,-0724,0834,12117,029.7,045.5,0.217,763.2,01.16,0.508
2017-05-04 00:31:00,1732E-3,5C000400,-0724,0835,11977,029.7,045.5,0.217,763.2,01.16,0.508
2017-05-04 00:32:00,1653E-3,5C000400,-0724,0835,12250,029.7,045.5,0.217,763.2,01.16,0.508
2017-05-04 00:33:00,1796E-3,5C000400,-0724,0836,11828,029.8,045.5,0.217,763.2,01.16,0.508
2017-05-04 00:34:00,1700E-3,5C000400,-0724,0836,12164,029.8,045.5,0.217,763.2,01.16,0.508
2017-05-04 00:35:00,1670E-3,5C000400,-0724,0835,11974,029.8,045.5,0.217,763.2,01.16,0.508
2017-05-04 00:36:00,1764E-3,5C000400,-0724,0836,12037,029.8,045.5,0.217,763.2,01.16,0.508
2017-05-04 00:37:00,1765E-3,5C000400,-0724,0836,11993,029.9,045.5,0.217,763.2,01.16,0.508
2017-05-04 00:38:00,1751E-3,5C000400,-0724,0835,11902,029.9,045.5,0.217,763.2,01.16,0.508
2017-05-04 00:39:00,1607E-3,5C000400,-0724,0836,12123,029.9,045.5,0.217,763.2,01.16,0.508
2017-05-04 00:40:00,1731E-3,5C000400,-0724,0836,12153,030.0,045.5,0.217,763.2,01.16,0.508
2017-05-04 00:41:00,1623E-3,5C000400,-0724,0836,12088,030.0,045.5,0.217,763.2,01.16,0.508
2017-05-04 00:42:00,1696E-3,5C000400,-0724,0835,11927,030.0,045.5,0.217,763.2,01.16,0.508
2017-05-04 00:43:00,1841E-3,5C000400,-0724,0835,12088,030.0,045.5,0.217,763.2,01.16,0.508
2017-05-04 00:44:00,1781E-3,5C000400,-0724,0836,12140,030.1,045.5,0.217,763.2,01.16,0.508
2017-05-04 00:45:00,1722E-3,5C000400,-0724,0835,12125,030.1,045.5,0.217,763.2,01.16,0.508
2017-05-04 00:46:00,1695E-3,5C000400,-0724,0836,12109,030.1,045.5,0.217,763.2,01.16,0.508
2017-05-04 00:47:00,1788E-3,5C000400,-0724,0836,12099,030.1,045.5,0.217,763.2,01.16,0.508
2017-05-04 00:48:00,1736E-3,5C000400,-0724,0835,12110,030.2,045.5,0.217,763.2,01.16,0.508
2017-05-04 00:49:00,1695E-3,5C000400,-0724,0835,12067,030.2,045.5,0.216,763.1,01.16,0.508
2017-05-04 00:50:00,1738E-3,5C000400,-0724,0836,12006,030.2,045.5,0.217,763.2,01.16,0.508
2017-05-04 00:51:00,1811E-3,5C000400,-0724,0835,12036,030.2,045.5,0.217,763.2,01.16,0.508
2017-05-04 00:52:00,1674E-3,5C000400,-0724,0836,12079,030.3,045.5,0.217,763.1,01.16,0.508
2017-05-04 00:53:00,1623E-3,5C000400,-0724,0835,12034,030.3,045.5,0.217,763.2,01.16,0.508
2017-05-04 00:54:00,1721E-3,5C000400,-0724,0836,12061,030.3,045.5,0.217,763.1,01.16,0.508
2017-05-04 00:55:00,1802E-3,5C000400,-0724,0837,11994,030.3,045.5,0.216,763.2,01.16,0.508
2017-05-04 00:56:00,1662E-3,5C000400,-0724,0837,12113,030.3,045.5,0.216,763.1,01.16,0.508
2017-05-04 00:57:00,1844E-3,5C000400,-0724,0836,11985,030.4,045.5,0.216,763.2,01.16,0.508
2017-05-04 00:58:00,1781E-3,5C000400,-0724,0836,12040,030.4,045.5,0.216,763.1,01.16,0.508
2017-05-04 00:59:00,1752E-3,5C000400,-0724,0835,12173,030.4,045.5,0.216,763.1,01.16,0.508
2017-05-04 01:00:00,1694E-3,5C000410,-0724,0837,12469,030.4,045.5,0.216,763.1,01.16,0.508
2017-05-04 01:01:00,1500E-3,5C000400,-0724,0840,11116,030.4,045.5,0.216,763.1,01.16,0.508
2017-05-04 01:02:00,1575E-3,5C000400,-0724,0853,12810,030.5,045.5,0.216,763.1,01.16,0.508
2017-05-04 01:03:00,1526E-3,5C000400,-0724,0837,11010,030.5,045.5,0.216,763.1,01.16,0.508
2017-05-04 01:04:00,1567E-3,5C000400,-0724,0845,12431,030.5,045.5,0.216,763.1,01.16,0.508
2017-05-04 01:05:00,1565E-3,5C000400,-0724,0837,12145,030.5,045.5,0.216,763.1,01.16,0.508
2017-05-04 01:06:00,1717E-3,5C000400,-0724,0834,12088,030.5,045.5,0.216,763.1,01.16,0.508
2017-05-04 01:07:00,1681E-3,5C000400,-0724,0841,12065,030.5,045.5,0.216,763.1,01.16,0.508
2017-05-04 01:08:00,1690E-3,5C000400,-0724,0838,10989,030.6,045.5,0.216,763.1,01.16,0.508
2017-05-04 01:09:00,1638E-3,5C000400,-0724,0838,12009,030.6,045.5,0.216,763.1,01.16,0.508
2017-05-04 01:10:00,1748E-3,5C000400,-0724,0836,12066,030.6,045.5,0.216,763.1,01.16,0.508
2017-05-04 01:11:00,1736E-3,5C000400,-0724,0836,12176,030.6,045.5,0.216,763.1,01.16,0.508
2017-05-04 01:12:00,1764E-3,5C000400,-0724,0837,12107,030.6,045.5,0.216,763.1,01.16,0.508
2017-05-04 01:13:00,1648E-3,5C000400,-0724,0836,12148,030.6,045.5,0.216,763.1,01.16,0.508
2017-05-04 01:14:00,1737E-3,5C000400,-0724,0837,12001,030.6,045.5,0.216,763.1,01.16,0.508
2017-05-04 01:15:00,1698E-3,5C000400,-0724,0835,11925,030.6,045.5,0.216,763.1,01.16,0.508
2017-05-04 01:16:00,1864E-3,5C000400,-0724,0836,12174,030.6,045.5,0.216,763.1,01.16,0.508
2017-05-04 01:17:00,1721E-3,5C000400,-0724,0837,12269,030.7,045.5,0.216,763.1,01.16,0.508
2017-05-04 01:18:00,1576E-3,5C000400,-0724,0836,12161,030.7,045.5,0.216,763.1,01.16,0.508
2017-05-04 01:19:00,1666E-3,5C000400,-0724,0836,12094,030.7,045.5,0.216,763.1,01.16,0.508
2017-05-04 01:20:00,1622E-3,5C000400,-0724,0836,12285,030.7,045.5,0.216,763.1,01.16,0.508
2017-05-04 01:21:00,1735E-3,5C000400,-0724,0836,12111,030.7,045.5,0.216,763.1,01.16,0.508
2017-05-04 01:22:00,1716E-3,5C000400,-0724,0836,12021,030.8,045.5,0.215,763.1,01.16,0.508
2017-05-04 01:23:00,1726E-3,5C000400,-0724,0836,12183,030.8,045.5,0.216,763.1,01.16,0.508
2017-05-04 01:24:00,1773E-3,5C000400,-0724,0836,12190,030.8,045.5,0.215,763.1,01.16,0.508
2017-05-04 01:25:00,1778E-3,5C000400,-0724,0837,12022,030.8,045.5,0.215,763.1,01.16,0.508
2017-05-04 01:26:00,1636E-3,5C000400,-0724,0834,12205,030.8,045.5,0.215,763.2,01.16,0.508
2017-05-04 01:27:00,1697E-3,5C000400,-0724,0836,12005,030.8,045.5,0.215,763.2,01.16,0.508
2017-05-04 01:28:00,1675E-3,5C000400,-0724,0836,12171,030.8,045.5,0.215,763.1,01.16,0.508
2017-05-04 01:29:00,1643E-3,5C000400,-0724,0837,12179,030.8,045.5,0.215,763.1,01.16,0.508
2017-05-04 01:30:00,1648E-3,5C000400,-0724,0836,12178,030.8,045.5,0.215,763.1,01.16,0.508
2017-05-04 01:31:00,1760E-3,5C000400,-0724,0837,12121,030.8,045.5,0.215,763.1,01.16,0.508
2017-05-04 01:32:00,1659E-3,5C000400,-0724,0836,12088,030.9,045.5,0.215,763.1,01.16,0.508
2017-05-04 01:33:00,1743E-3,5C000400,-0724,0838,10933,030.9,045.5,0.215,763.1,01.16,0.508
2017-05-04 01:34:00,1629E-3,5C000400,-0724,0837,12120,030.9,045.5,0.215,763.1,01.16,0.508
2017-05-04 01:35:00,1664E-3,5C000400,-0724,0835,12169,030.9,045.5,0.215,763.1,01.16,0.508
2017-05-04 01:36:00,1502E-3,5C000400,-0724,0836,11919,030.9,045.5,0.215,763.1,01.16,0.508
2017-05-04 01:37:00,1663E-3,5C000400,-0724,0836,12274,030.9,045.5,0.215,763.1,01.16,0.508
2017-05-04 01:38:00,1722E-3,5C000400,-0724,0836,12070,030.9,045.5,0.215,763.1,01.16,0.508
2017-05-04 01:39:00,1722E-3,5C000400,-0724,0836,12027,030.9,045.5,0.215,763.1,01.16,0.508
2017-05-04 01:40:00,1795E-3,5C000400,-0724,0835,12034,030.9,045.5,0.215,763.1,01.16,0.508
2017-05-04 01:41:00,1842E-3,5C000400,-0724,0836,12081,030.9,045.5,0.215,763.1,01.16,0.508
2017-05-04 01:42:00,1653E-3,5C000400,-0724,0836,12053,030.9,045.5,0.215,763.1,01.16,0.508
2017-05-04 01:43:00,1664E-3,5C000400,-0724,0836,12025,030.8,045.5,0.215,763.1,01.16,0.508
2017-05-04 01:44:00,1699E-3,5C000400,-0724,0837,12115,030.7,045.5,0.215,763.1,01.16,0.508
2017-05-04 01:45:00,1674E-3,5C000400,-0724,0836,12197,030.5,045.5,0.215,763.1,01.16,0.508
2017-05-04 01:46:00,1616E-3,5C000400,-0724,0836,12207,030.3,045.5,0.215,763.2,01.16,0.508
2017-05-04 01:47:00,1785E-3,5C000400,-0724,0837,11928,030.1,045.5,0.216,763.2,01.16,0.508
2017-05-04 01:48:00,1802E-3,5C000400,-0724,0837,10930,029.9,045.5,0.215,763.2,01.16,0.508
2017-05-04 01:49:00,1761E-3,5C000400,-0724,0835,12155,029.8,045.5,0.216,763.2,01.16,0.508
2017-05-04 01:50:00,1658E-3,5C000400,-0724,0835,12089,029.6,045.5,0.216,763.2,01.16,0.508
2017-05-04 01:51:00,1755E-3,5C000400,-0724,0835,12043,029.5,045.5,0.216,763.2,01.16,0.508
2017-05-04 01:52:00,1546E-3,5C000400,-0724,0838,12153,029.4,045.5,0.216,763.2,01.16,0.508
2017-05-04 01:53:00,1724E-3,5C000400,-0724,0835,12160,029.3,045.5,0.216,763.2,01.16,0.508
2017-05-04 01:54:00,1761E-3,5C000400,-0724,0836,12195,029.3,045.5,0.217,763.2,01.16,0.508
2017-05-04 01:55:00,1715E-3,5C000400,-0724,0836,12143,029.3,045.5,0.217,763.2,01.16,0.508
2017-05-04 01:56:00,1695E-3,5C000400,-0724,0836,12144,029.4,045.5,0.217,763.2,01.16,0.508
2017-05-04 01:57:00,1692E-3,5C000400,-0724,0837,12184,029.4,045.5,0.218,763.1,01.16,0.508
2017-05-04 01:58:00,1697E-3,5C000400,-0724,0836,12057,029.5,045.5,0.218,763.2,01.16,0.508
2017-05-04 01:59:00,1688E-3,5C000400,-0724,0836,12215,029.5,045.5,0.218,763.2,01.16,0.508
2017-05-04 02:00:00,1737E-3,5C000400,-0724,0836,12071,029.6,045.5,0.217,763.2,01.16,0.508
2017-05-04 02:01:00,1664E-3,5C000400,-0724,0835,12130,029.6,045.5,0.218,763.1,01.16,0.508
2017-05-04 02:02:00,1586E-3,5C000400,-0724,0836,11950,029.6,045.5,0.218,763.2,01.16,0.508
2017-05-04 02:03:00,1864E-3,5C000400,-0724,0836,12234,029.7,045.5,0.218,763.2,01.16,0.508
2017-05-04 02:04:00,1730E-3,5C000400,-0724,0836,12106,029.7,045.5,0.218,763.2,01.16,0.508
2017-05-04 02:05:00,1617E-3,5C000400,-0724,0837,12262,029.8,045.5,0.217,763.2,01.16,0.508
2017-05-04 02:06:00,1519E-3,5C000400,-0724,0839,12414,029.8,045.5,0.217,763.2,01.16,0.508
2017-05-04 02:07:00,1613E-3,5C000400,-0724,0836,11212,029.9,045.5,0.218,763.2,01.16,0.508
2017-05-04 02:08:00,1714E-3,5C000400,-0724,0836,12044,029.9,045.5,0.218,763.2,01.16,0.508
2017-05-04 02:09:00,1557E-3,5C000400,-0724,0838,12207,029.9,045.5,0.217,763.2,01.16,0.508
2017-05-04 02:10:00,1534E-3,5C000400,-0724,0836,12082,030.0,045.5,0.218,763.1,01.16,0.508
2017-05-04 02:11:00,1692E-3,5C000400,-0724,0838,12135,030.0,045.5,0.217,763.1,01.16,0.508
2017-05-04 02:12:00,1569E-3,5C000400,-0724,0839,11017,030.0,045.5,0.217,763.1,01.16,0.508
2017-05-04 02:13:00,1642E-3,5C000400,-0724,0841,12308,030.1,045.5,0.217,763.2,01.16,0.508
2017-05-04 02:14:00,1558E-3,5C000400,-0724,0838,12139,030.1,045.5,0.217,763.2,01.16,0.508
2017-05-04 02:15:00,1630E-3,5C000400,-0724,0838,12246,030.2,045.5,0.217,763.2,01.16,0.508
2017-05-04 02:16:00,1750E-3,5C000400,-0724,0838,12125,030.2,045.5,0.217,763.2,01.16,0.508
2017-05-04 02:17:00,1539E-3,5C000400,-0724,0837,12068,030.2,045.5,0.217,763.2,01.16,0.508
2017-05-04 02:18:00,1694E-3,5C000400,-0724,0836,12123,030.2,045.5,0.217,763.2,01.16,0.508
2017-05-04 02:19:00,1613E-3,5C000400,-0724,0836,12067,030.3,045.5,0.216,763.2,01.16,0.508
2017-05-04 02:20:00,1560E-3,5C000400,-0724,0835,12107,030.3,045.5,0.216,763.2,01.16,0.508
2017-05-04 02:21:00,1834E-3,5C000400,-0724,0836,12159,030.4,045.5,0.217,763.2,01.16,0.508
2017-05-04 02:22:00,1731E-3,5C000400,-0724,0836,12151,030.4,045.5,0.217,763.2,01.16,0.508
2017-05-04 02:23:00,1559E-3,5C000410,-0724,0836,12313,030.4,045.5,0.217,763.2,01.16,0.508
2017-05-04 02:24:00,1617E-3,5C000400,-0724,0835,10843,030.4,045.5,0.217,763.2,01.16,0.508
2017-05-04 02:25:00,1506E-3,5C000400,-0724,0837,12077,030.5,045.5,0.216,763.2,01.16,0.508
2017-05-04 02:26:00,1679E-3,5C000400,-0724,0835,12085,030.5,045.5,0.216,763.2,01.16,0.508
2017-05-04 02:27:00,1745E-3,5C000400,-0724,0836,12031,030.5,045.5,0.216,763.2,01.16,0.508
2017-05-04 02:28:00,1734E-3,5C000400,-0724,0835,12106,030.5,045.5,0.216,763.2,01.16,0.508
2017-05-04 02:29:00,1758E-3,5C000400,-0724,0837,12129,030.6,045.5,0.216,763.2,01.16,0.508
2017-05-04 02:30:00,1730E-3,5C000400,-0724,0836,12008,030.6,045.5,0.216,763.2,01.16,0.508
2017-05-04 02:31:00,1667E-3,5C000400,-0724,0836,11848,030.6,045.5,0.216,763.2,01.16,0.508
2017-05-04 02:32:00,1824E-3,5C000400,-0724,0838,12063,030.6,045.5,0.216,763.2,01.16,0.508
2017-05-04 02:33:00,1667E-3,5C000400,-0724,0837,12257,030.6,045.5,0.216,763.2,01.16,0.508
2017-05-04 02:34:00,1648E-3,5C000400,-0724,0836,12067,030.7,045.5,0.215,763.2,01.16,0.508
2017-05-04 02:35:00,1707E-3,5C000400,-0724,0836,12105,030.6,045.5,0.215,763.2,01.16,0.508
2017-05-04 02:36:00,1735E-3,5C000400,-0724,0836,12173,030.6,045.5,0.215,763.2,01.16,0.508
2017-05-04 02:37:00,1628E-3,5C000400,-0724,0837,12285,030.5,045.5,0.215,763.2,01.16,0.508
2017-05-04 02:38:00,1671E-3,5C000400,-0724,0837,12064,030.4,045.5,0.216,763.2,01.16,0.508
2017-05-04 02:39:00,1729E-3,5C000400,-0724,0836,12030,030.2,045.5,0.216,763.3,01.16,0.508
2017-05-04 02:40:00,1713E-3,5C000400,-0724,0835,12141,029.9,045.5,0.216,763.3,01.16,0.508
2017-05-04 02:41:00,1691E-3,5C000400,-0724,0838,12227,029.7,045.5,0.216,763.3,01.16,0.508
2017-05-04 02:42:00,1717E-3,5C000400,-0724,0836,12002,029.5,045.5,0.216,763.3,01.16,0.508
2017-05-04 02:43:00,1674E-3,5C000400,-0724,0835,12255,029.4,045.5,0.217,763.3,01.16,0.508
2017-05-04 02:44:00,1689E-3,5C000400,-0724,0837,12112,029.3,045.5,0.217,763.3,01.16,0.508
2017-05-04 02:45:00,1794E-3,5C000400,-0724,0838,12164,029.2,045.5,0.217,763.3,01.16,0.508
2017-05-04 02:46:00,1671E-3,5C000400,-0724,0839,12204,029.1,045.5,0.217,763.3,01.16,0.508
2017-05-04 02:47:00,1679E-3,5C000400,-0724,0836,12228,029.1,045.5,0.218,763.3,01.16,0.508
2017-05-04 02:48:00,1580E-3,5C000400,-0724,0835,12076,029.1,045.5,0.218,763.3,01.16,0.508
2017-05-04 02:49:00,1784E-3,5C000400,-0724,0836,12038,029.1,045.5,0.218,763.3,01.16,0.508
2017-05-04 02:50:00,1764E-3,5C000400,-0724,0836,11070,029.1,045.5,0.218,763.3,01.16,0.508
2017-05-04 02:51:00,1713E-3,5C000400,-0724,0835,12052,029.2,045.5,0.218,763.3,01.16,0.508
2017-05-04 02:52:00,1883E-3,5C000400,-0724,0836,10983,029.2,045.5,0.218,763.3,01.16,0.508
2017-05-04 02:53:00,1696E-3,5C000400,-0724,0837,12192,029.3,045.5,0.218,763.3,01.16,0.508
2017-05-04 02:54:00,1747E-3,5C000400,-0724,0835,11966,029.4,045.5,0.218,763.3,01.16,0.508
2017-05-04 02:55:00,1683E-3,5C000400,-0724,0835,12084,029.4,045.5,0.218,763.3,01.16,0.508
2017-05-04 02:56:00,1725E-3,5C000400,-0724,0835,12069,029.5,045.5,0.218,763.3,01.16,0.508
2017-05-04 02:57:00,1718E-3,5C000400,-0724,0835,12102,029.6,045.5,0.218,763.3,01.16,0.508
2017-05-04 02:58:00,1685E-3,5C000400,-0724,0835,12170,029.6,045.5,0.218,763.3,01.16,0.508
2017-05-04 02:59:00,1659E-3,5C000400,-0724,0835,12100,029.6,045.5,0.218,763.3,01.16,0.508
2017-05-04 03:00:00,1626E-3,5C000400,-0724,0835,12048,029.7,045.5,0.218,763.3,01.16,0.508
2017-05-04 03:01:00,1589E-3,5C000400,-0724,0835,12107,029.7,045.5,0.218,763.3,01.16,0.508
2017-05-04 03:02:00,1663E-3,5C000400,-0724,0836,12065,029.8,045.5,0.218,763.3,01.16,0.508
2017-05-04 03:03:00,1772E-3,5C000400,-0724,0835,12143,029.8,045.5,0.218,763.3,01.16,0.508
2017-05-04 03:04:00,1623E-3,5C000400,-0724,0836,11936,029.9,045.5,0.217,763.3,01.16,0.508
2017-05-04 03:05:00,1607E-3,5C000400,-0724,0835,12066,029.9,045.5,0.218,763.3,01.16,0.508
2017-05-04 03:06:00,1718E-3,5C000400,-0724,0835,11897,030.0,045.5,0.218,763.3,01.16,0.508
2017-05-04 03:07:00,1655E-3,5C000400,-0724,0836,11910,030.0,045.5,0.217,763.3,01.16,0.508
2017-05-04 03:08:00,1692E-3,5C000400,-0724,0835,12052,030.1,045.5,0.217,763.3,01.16,0.508
2017-05-04 03:09:00,1645E-3,5C000400,-0724,0836,12106,030.1,045.5,0.217,763.3,01.16,0.508
2017-05-04 03:10:00,1698E-3,5C000400,-0724,0836,12164,030.2,045.5,0.217,763.3,01.16,0.508
2017-05-04 03:11:00,1580E-3,5C000400,-0724,0835,12212,030.2,045.5,0.217,763.3,01.16,0.508
2017-05-04 03:12:00,1625E-3,5C000400,-0724,0836,11977,030.2,045.5,0.217,763.2,01.16,0.508
2017-05-04 03:13:00,1773E-3,5C000400,-0724,0835,12113,030.2,045.5,0.217,763.3,01.16,0.508
2017-05-04 03:14:00,1706E-3,5C000400,-0724,0836,12133,030.2,045.5,0.217,763.3,01.16,0.508
2017-05-04 03:15:00,1629E-3,5C000400,-0724,0835,12160,030.1,045.5,0.217,763.3,01.16,0.508
2017-05-04 03:16:00,1801E-3,5C000400,-0724,0836,12089,030.0,045.5,0.217,763.3,01.16,0.508
2017-05-04 03:17:00,1702E-3,5C000400,-0724,0835,11927,029.8,045.5,0.217,763.3,01.16,0.508
2017-05-04 03:18:00,1731E-3,5C000400,-0724,0835,11873,029.6,045.5,0.217,763.4,01.16,0.508
2017-05-04 03:19:00,1709E-3,5C000400,-0724,0836,12177,029.5,045.5,0.217,763.4,01.16,0.508
2017-05-04 03:20:00,1644E-3,5C000400,-0724,0835,12166,029.3,045.5,0.217,763.4,01.16,0.508
2017-05-04 03:21:00,1764E-3,5C000400,-0724,0835,12058,029.1,045.5,0.217,763.4,01.16,0.508
2017-05-04 03:22:00,1783E-3,5C000400,-0724,0835,12276,029.0,045.5,0.218,763.4,01.16,0.508
2017-05-04 03:23:00,1708E-3,5C000400,-0724,0835,12051,028.9,045.5,0.217,763.4,01.16,0.508
2017-05-04 03:24:00,1758E-3,5C000400,-0724,0835,12225,028.9,045.5,0.218,763.3,01.16,0.508
2017-05-04 03:25:00,1815E-3,5C000400,-0724,0835,11988,028.9,045.5,0.218,763.3,01.16,0.508
2017-05-04 03:26:00,1628E-3,5C000400,-0724,0835,12035,028.9,045.5,0.218,763.3,01.16,0.508
2017-05-04 03:27:00,1713E-3,5C000400,-0724,0835,11981,028.9,045.5,0.218,763.3,01.16,0.508
2017-05-04 03:28:00,1694E-3,5C000400,-0724,0834,12150,028.9,045.5,0.218,763.3,01.16,0.508
2017-05-04 03:29:00,1667E-3,5C000400,-0724,0835,12028,028.9,045.5,0.219,763.3,01.16,0.508
2017-05-04 03:30:00,1711E-3,5C000400,-0724,0835,12206,029.0,045.5,0.219,763.3,01.16,0.508
2017-05-04 03:31:00,1653E-3,5C000400,-0724,0835,11951,029.0,045.5,0.218,763.3,01.16,0.508
2017-05-04 03:32:00,1753E-3,5C000400,-0724,0835,12095,029.0,045.5,0.219,763.3,01.16,0.508
2017-05-04 03:33:00,1763E-3,5C000400,-0724,0835,12099,029.1,045.5,0.219,763.3,01.16,0.508
2017-05-04 03:34:00,1688E-3,5C000400,-0724,0835,12032,029.1,045.5,0.219,763.3,01.16,0.508
2017-05-04 03:35:00,1702E-3,5C000400,-0724,0834,12003,029.0,045.5,0.219,763.3,01.16,0.508
2017-05-04 03:36:00,1664E-3,5C000400,-0724,0834,12150,028.9,045.5,0.219,763.3,01.16,0.508
2017-05-04 03:37:00,1758E-3,5C000400,-0724,0835,12095,028.8,045.5,0.219,763.3,01.16,0.508
2017-05-04 03:38:00,1735E-3,5C000400,-0724,0834,11950,028.7,045.5,0.219,763.3,01.16,0.508
2017-05-04 03:39:00,1631E-3,5C000400,-0724,0834,12142,028.6,045.5,0.219,763.3,01.16,0.508
2017-05-04 03:40:00,1780E-3,5C000400,-0724,0834,12135,028.6,045.5,0.219,763.3,01.16,0.508
2017-05-04 03:41:00,1765E-3,5C000400,-0724,0834,12065,028.5,045.5,0.219,763.3,01.16,0.508
2017-05-04 03:42:00,1726E-3,5C000400,-0724,0834,11935,028.4,045.5,0.220,763.3,01.16,0.508
2017-05-04 03:43:00,1834E-3,5C000400,-0724,0834,12091,028.5,045.5,0.220,763.3,01.16,0.508
2017-05-04 03:44:00,1746E-3,5C000400,-0724,0833,12265,028.5,045.5,0.220,763.3,01.16,0.508
2017-05-04 03:45:00,1754E-3,5C000400,-0724,0835,12007,028.5,045.5,0.219,763.3,01.16,0.508
2017-05-04 03:46:00,1640E-3,5C000400,-0724,0834,12096,028.6,045.5,0.219,763.3,01.16,0.508
2017-05-04 03:47:00,1768E-3,5C000400,-0724,0834,12118,028.7,045.5,0.220,763.3,01.16,0.508
2017-05-04 03:48:00,1776E-3,5C000400,-0724,0834,12045,028.8,045.5,0.220,763.3,01.16,0.508
2017-05-04 03:49:00,1707E-3,5C000400,-0724,0835,12049,028.9,045.5,0.220,763.3,01.16,0.508
2017-05-04 03:50:00,1772E-3,5C000400,-0724,0834,12035,028.9,045.5,0.220,763.3,01.16,0.508
2017-05-04 03:51:00,1759E-3,5C000400,-0724,0834,11855,029.0,045.5,0.219,763.3,01.16,0.508
2017-05-04 03:52:00,1689E-3,5C000400,-0724,0835,12125,029.1,045.5,0.220,763.3,01.16,0.508
2017-05-04 03:53:00,1656E-3,5C000400,-0724,0836,12202,029.1,045.5,0.219,763.3,01.16,0.508
2017-05-04 03:54:00,1721E-3,5C000400,-0724,0835,12235,029.2,045.5,0.219,763.3,01.16,0.508
2017-05-04 03:55:00,1631E-3,5C000400,-0724,0836,12185,029.3,045.5,0.219,763.3,01.16,0.508
2017-05-04 03:56:00,1615E-3,5C000400,-0724,0835,12068,029.4,045.5,0.219,763.3,01.16,0.508
2017-05-04 03:57:00,1862E-3,5C000400,-0724,0835,12079,029.4,045.5,0.219,763.3,01.16,0.508
2017-05-04 03:58:00,1756E-3,5C000400,-0724,0835,12014,029.5,045.5,0.219,763.3,01.16,0.508
2017-05-04 03:59:00,1780E-3,5C000400,-0724,0835,12209,029.6,045.5,0.219,763.3,01.16,0.508
2017-05-04 04:00:00,1593E-3,5C000400,-0724,0835,11916,029.6,045.5,0.219,763.3,01.16,0.508
2017-05-04 04:01:00,1732E-3,5C000400,-0724,0835,12133,029.5,045.5,0.219,763.3,01.16,0.508
2017-05-04 04:02:00,1729E-3,5C000400,-0724,0834,12042,029.4,045.5,0.218,763.3,01.16,0.508
2017-05-04 04:03:00,1660E-3,5C000400,-0724,0835,12093,029.3,045.5,0.218,763.3,01.16,0.508
2017-05-04 04:04:00,1742E-3,5C000400,-0724,0835,11939,029.1,045.5,0.218,763.4,01.16,0.508
2017-05-04 04:05:00,1650E-3,5C000400,-0724,0836,11962,029.0,045.5,0.218,763.4,01.16,0.508
2017-05-04 04:06:00,1762E-3,5C000400,-0724,0835,12125,028.9,045.5,0.219,763.3,01.16,0.508
2017-05-04 04:07:00,1611E-3,5C000400,-0724,0834,12054,028.8,045.5,0.219,763.4,01.16,0.508
2017-05-04 04:08:00,1653E-3,5C000400,-0724,0835,12126,028.7,045.5,0.219,763.4,01.16,0.508
2017-05-04 04:09:00,1717E-3,5C000400,-0724,0834,12151,028.7,045.5,0.219,763.3,01.16,0.508
2017-05-04 04:10:00,1669E-3,5C000400,-0724,0836,12103,028.6,045.5,0.219,763.3,01.16,0.508
2017-05-04 04:11:00,1713E-3,5C000400,-0724,0835,12071,028.7,045.5,0.220,763.3,01.16,0.508
2017-05-04 04:12:00,1851E-3,5C000400,-0724,0833,12098,028.8,045.5,0.220,763.3,01.16,0.508
2017-05-04 04:13:00,1724E-3,5C000400,-0724,0835,12180,028.8,045.5,0.220,763.3,01.16,0.508
2017-05-04 04:14:00,1794E-3,5C000400,-0724,0835,12109,028.8,045.5,0.219,763.3,01.16,0.508
2017-05-04 04:15:00,1806E-3,5C000400,-0724,0836,12070,028.8,045.5,0.219,763.3,01.16,0.508
2017-05-04 04:16:00,1758E-3,5C000400,-0724,0836,12180,028.8,045.5,0.220,763.3,01.16,0.508
2017-05-04 04:17:00,1688E-3,5C000400,-0724,0834,12069,028.7,045.5,0.220,763.3,01.16,0.508
2017-05-04 04:18:00,1643E-3,5C000400,-0724,0834,12044,028.6,045.5,0.219,763.3,01.16,0.508
2017-05-04 04:19:00,1684E-3,5C000400,-0724,0835,12162,028.5,045.4,0.219,763.3,01.16,0.508
2017-05-04 04:20:00,1631E-3,5C000400,-0724,0835,12121,028.4,045.5,0.220,763.4,01.16,0.508